Regional Weather Roundup
Issued by NWS

Home | Current Version | Previous Version | Graphics & Text | Print | Product List | Glossary On
Versions: 1 2 3 4 5 6 7 8 9 10 11 12 13 14 15 16 17 18 19 20 21 22 23 24 25 26 27 28 29 30 31 32 33 34 35 36 37 38 39 40 41 42 43 44 45 46 47 48 49 50
366
ASUS43 KDTX 262201
RWRMI
MICHIGAN HOURLY REGIONAL WEATHER ROUNDUP
NATIONAL WEATHER SERVICE DETROIT/PONTIAC MI
600 PM EDT THU APR 26 2018

NOTE: "FAIR" INDICATES FEW OR NO CLOUDS BELOW 12,000 FEET WITH NO
SIGNIFICANT WEATHER AND/OR OBSTRUCTION TO VISIBILITY.

MIZ047>049-052>055-059>063-066>070-074>076-081>083-262300-
SOUTHEAST LOWER MICHIGAN

CITY           SKY/WX    TMP DP  RH WIND       PRES   REMARKS
ADRIAN         FAIR      62  33  33 SW7       29.86F
ALMA           FAIR      63  29  27 W12       29.84F
ANN ARBOR      FAIR      64  32  30 W9        29.84F
BAD AXE        FAIR      61  -1   8 W6        29.86F
CARO           FAIR      61  20  20 W7        29.84F
DETROIT CITY   FAIR      61  38  42 SW6       29.84F
DETROIT        FAIR      64  35  34 SW7       29.85F
FLINT          FAIR      62  22  21 N7        29.85F
GROSSE ILE     FAIR      51  41  67 S13       29.86S
HILLSDALE      FAIR      63  30  29 W8        29.86S
HOWELL         FAIR      62  22  22 NW6       29.84F

CITY           SKY/WX    TMP DP  RH WIND       PRES   REMARKS
JACKSON        FAIR      63  25  23 W6        29.85S
LAMBERTVILLE   FAIR      63  29  28 NW3       29.86S
LANSING        FAIR      63  29  27 W7        29.85F
LAPEER         FAIR      61  20  20 CALM      29.85F
MASON          FAIR      64  20  18 W9        29.85F
MONROE         FAIR      57  39  52 S10G16    29.86R
MT. CLEMENS    MOSUNNY   59  39  47 SE6       29.87F
PONTIAC        PTSUNNY   62  26  25 W10       29.83F
PORT HOPE        N/A     44  38  79 SE13      29.84F
PORT HURON     FAIR      61  34  36 S5        29.85F
TRI CITIES     FAIR      63  28  26 W8        29.83F
MIDLAND        FAIR      63  31  30 W7        29.82F
TROY           FAIR      65  26  23 NW10      29.86S
SAGINAW HB     FAIR      63  28  27 SW9       29.84S
$$
MIZ043>046-050>051-056>058-064>065-071>073-077>080-262300-
SOUTHWEST LOWER MICHIGAN

CITY           SKY/WX    TMP DP  RH WIND       PRES   REMARKS
BATTLE CREEK   FAIR      65  29  25 W9        29.86S
BENTON HARBOR  FAIR      56  25  30 VRB3      29.89F
BIG RAPIDS     FAIR      58  16  19 W12       29.84S
COLDWATER      FAIR      63  32  31 W7        29.86S
FREMONT        FAIR      56  15  19 SW8       29.86S
HOLLAND        FAIR      56  28  34 W7        29.89F
GRAND RAPIDS   PTSUNNY   61  26  26 W13G23    29.87F
IONIA          FAIR      63  28  27 W9        29.84F
KALAMAZOO      FAIR      64  32  30 NW14      29.87R
LUDINGTON      FAIR      54  30  39 SW12      29.84F
MARSHALL       FAIR      63  26  25 W7        29.85S
MOUNT PLEASANT FAIR      63  28  26 W12       29.83S
MUSKEGON       PTSUNNY   56  29  35 S9        29.88F
SOUTH HAVEN    FAIR      56  24  29 NW5       29.89F
$$
MIZ016>042-262300-
NORTHERN LOWER MICHIGAN

CITY           SKY/WX    TMP DP  RH WIND       PRES   REMARKS
ALPENA         FAIR      53  34  48 E7        29.82S
BEAVER ISLAND  FAIR      54  29  37 SW13      29.80F
BELLAIRE       FAIR      60  25  25 W6        29.81S
CADILLAC       FAIR      59  22  24 W9        29.82S
CHARLEVOIX     FAIR      56  29  35 W10       29.84S
FRANKFORT      FAIR      52  33  46 SW9       29.83S
GAYLORD        FAIR      56  26  31 W8        29.80F
GRAYLING       FAIR      62  25  24 SW9       29.79F
HARBOR SPRINGS FAIR      57  26  30 W9G16     29.81S
HOUGHTON LAKE  FAIR      60  29  30 W7        29.81F
MANISTEE       FAIR      59  30  33 S12       29.82F
OSCODA         FAIR      56  25  29 S12       29.82S
PELLSTON       FAIR      58  25  28 W15       29.81F
ROGERS CITY    FAIR      47  35  63 N5        29.83S
TRAVERSE CITY  CLOUDY    62  25  24 W12       29.79F
$$
MIZ007>008-015-262300-
EASTERN UPPER MICHIGAN

CITY           SKY/WX    TMP DP  RH WIND       PRES   REMARKS
KINROSS        FAIR      55  29  36 SW9       29.80S
MACKINAC ISLAN FAIR      51  30  44 W10G21    29.81S
NEWBERRY       FAIR      51  32  48 S15       29.78S
MUNISING         N/A     46  29  51 NW21      29.80R
$$
MIZ004>006-011>014-085-262300-
CENTRAL UPPER MICHIGAN

CITY           SKY/WX    TMP DP  RH WIND       PRES   REMARKS
MANISTIQUE     FAIR      42  36  78 S10G16    29.79F
ESCANABA       FAIR      51  32  48 S15G22    29.75F
MENOMINEE      FAIR      64  32  30 SW10      29.76
SAWYER-GWINN   CLOUDY    48  30  49 N16G24    29.78R
$$
MIZ001>003-009>011-084-262300-
WESTERN UPPER MICHIGAN

CITY           SKY/WX    TMP DP  RH WIND       PRES   REMARKS
IRON MOUNTAIN  PTSUNNY   63  30  28 W12       29.74R
HOUGHTON       CLOUDY    40  33  76 N13       29.84R WCI  32
COPPER HARBOR    N/A     38  33  82 N13       29.85S WCI  30
IRONWOOD       PTSUNNY   46  36  68 VRB7      29.88F
$$

ABBREVIATIONS USED IN REMARKS
   TC - TEMPERATURE IN CELSIUS
  WCI - WIND CHILL INDEX
   HX - HEAT INDEX
  VSB - VISIBILITY





USA.gov is the U.S. government's official web portal to all federal, state and local government web resources and services.